TimeEDT,TemperatureF,Dew PointF,Humidity,Sea Level PressureIn,VisibilityMPH,Wind Direction,Wind SpeedMPH,Gust SpeedMPH,PrecipitationIn,Events,Conditions,WindDirDegrees,DateUTC
12:58 AM,77.4,72.0,83,30.09,10.0,SW,11.5,-,N/A,,Clear,230,2013-08-04 04:58:00
1:58 AM,77.5,72.7,85,30.09,10.0,SW,9.2,-,N/A,,Clear,230,2013-08-04 05:58:00
2:58 AM,77.5,73.6,88,30.08,10.0,WSW,8.1,-,N/A,,Clear,240,2013-08-04 06:58:00
3:58 AM,77.5,73.4,87,30.06,10.0,SW,9.2,-,N/A,,Clear,230,2013-08-04 07:58:00
4:58 AM,77.5,73.8,88,30.06,10.0,SW,9.2,-,N/A,,Clear,230,2013-08-04 08:58:00
5:58 AM,77.5,74.1,89,30.06,10.0,SW,8.1,-,N/A,,Clear,230,2013-08-04 09:58:00
6:58 AM,77.7,73.9,88,30.08,10.0,SW,9.2,-,N/A,,Clear,230,2013-08-04 10:58:00
7:58 AM,78.4,74.7,88,30.09,10.0,SW,9.2,-,N/A,,Clear,230,2013-08-04 11:58:00
8:58 AM,80.8,75.9,85,30.11,10.0,SW,10.4,-,N/A,,Clear,230,2013-08-04 12:58:00
9:58 AM,83.5,75.6,77,30.09,10.0,SW,8.1,-,N/A,,Clear,230,2013-08-04 13:58:00
10:58 AM,86.9,73.6,64,30.09,10.0,West,8.1,-,N/A,,Partly Cloudy,260,2013-08-04 14:58:00
11:58 AM,88.9,71.2,56,30.09,10.0,West,5.8,-,N/A,,Clear,270,2013-08-04 15:58:00
12:32 PM,87.8,69.8,55,30.07,10.0,SW,8.1,-,N/A,,Light Drizzle,230,2013-08-04 16:32:00
12:42 PM,87.8,69.8,55,30.06,10.0,SSW,4.6,-,N/A,,Partly Cloudy,210,2013-08-04 16:42:00
12:47 PM,87.8,69.8,55,30.06,10.0,Variable,1.2,-,N/A,,Light Drizzle,0,2013-08-04 16:47:00
12:58 PM,88.9,70.0,53,30.06,10.0,West,3.5,-,0.00,,Light Drizzle,260,2013-08-04 16:58:00
1:11 PM,89.6,69.8,52,30.05,10.0,WSW,5.8,-,N/A,,Clear,250,2013-08-04 17:11:00
1:58 PM,90.7,68.4,48,30.04,10.0,SW,9.2,-,0.00,,Partly Cloudy,230,2013-08-04 17:58:00
2:58 PM,91.9,68.7,46,30.03,10.0,SW,8.1,-,N/A,,Clear,230,2013-08-04 18:58:00
3:16 PM,89.6,71.6,55,30.00,10.0,WNW,21.9,27.6,N/A,Thunderstorm,Thunderstorm,300,2013-08-04 19:16:00
3:18 PM,89.6,73.4,59,30.01,6.0,NW,21.9,27.6,N/A,Rain-Thunderstorm,Light Thunderstorms and Rain,320,2013-08-04 19:18:00
3:20 PM,87.8,73.4,62,30.02,2.0,NNW,23.0,27.6,N/A,Rain-Thunderstorm,Light Thunderstorms and Rain,330,2013-08-04 19:20:00
3:25 PM,82.4,69.8,66,30.02,1.0,North,15.0,33.4,N/A,Rain-Thunderstorm,Heavy Thunderstorms and Rain,350,2013-08-04 19:25:00
3:30 PM,80.6,69.8,70,30.02,1.2,North,16.1,33.4,N/A,Rain-Thunderstorm,Heavy Thunderstorms and Rain,350,2013-08-04 19:30:00
3:35 PM,80.6,69.8,70,30.01,5.0,North,11.5,19.6,N/A,Rain-Thunderstorm,Thunderstorms and Rain,350,2013-08-04 19:35:00
3:45 PM,80.6,71.6,74,30.01,10.0,North,10.4,-,N/A,Thunderstorm,Thunderstorm,360,2013-08-04 19:45:00
3:49 PM,80.6,71.6,74,30.01,10.0,North,10.4,-,N/A,Thunderstorm,Scattered Clouds,10,2013-08-04 19:49:00
3:58 PM,80.6,71.4,73,30.03,10.0,NNE,8.1,-,0.26,Thunderstorm,Partly Cloudy,30,2013-08-04 19:58:00
4:58 PM,79.9,72.7,79,30.03,10.0,WNW,3.5,-,N/A,,Partly Cloudy,290,2013-08-04 20:58:00
5:58 PM,83.8,72.9,69,30.01,10.0,Variable,5.8,-,N/A,,Clear,0,2013-08-04 21:58:00
6:58 PM,82.6,72.5,71,30.01,10.0,SE,8.1,-,N/A,,Clear,140,2013-08-04 22:58:00
7:58 PM,84.4,73.4,69,30.03,10.0,WSW,8.1,-,N/A,,Clear,250,2013-08-04 23:58:00
8:58 PM,83.8,73.4,71,30.03,10.0,WSW,6.9,-,N/A,,Clear,240,2013-08-05 00:58:00
9:58 PM,83.5,74.5,74,30.04,10.0,WSW,6.9,-,N/A,,Clear,240,2013-08-05 01:58:00
10:58 PM,83.1,74.7,76,30.04,10.0,West,9.2,-,N/A,,Clear,260,2013-08-05 02:58:00
11:11 PM,82.4,75.2,79,30.02,10.0,WSW,10.4,-,N/A,,Light Drizzle,250,2013-08-05 03:11:00
11:34 PM,82.4,75.2,79,30.02,10.0,WSW,10.4,-,N/A,,Clear,250,2013-08-05 03:34:00
11:58 PM,82.0,74.8,79,30.04,10.0,WSW,8.1,-,0.00,,Clear,250,2013-08-05 03:58:00